Date String (YYYY-MM-DD hh:mm:ss) UTC,Instrument flags,Ambient pressure (hPa),Sample flow (lpm),Bypass flow (lpm),Sample temperature (°C),Ambient temperature (°C),ASC tube jacket temperature (°C),LED temperature (°C),Box temperature (°C),Sample RH (%),Span deviation,Mass concentration (μg/m³),Mass concentration (μg/m³),Mass concentration (μg/m³)
DateTimeUTC,F1_M11,P_M11,Q1_M11,Q2_M11,T1_M11,T2_M11,T3_M11,T4_M11,T5_M11,U1_M11,ZSPAN_M11,X2_M11,X0_M11,X1_M11
2022-02-14 19:00:00,,0825.6,4.99,0.00,26.0,25.2,00.0,34.8,27.9,10.0,0000.0,0004.53,0009.56,0004.02
2022-02-14 19:01:00,,0825.6,5.01,0.00,26.0,25.2,00.0,34.9,27.9,09.9,0000.0,0004.50,0008.58,0004.02
2022-02-14 19:02:00,,0825.6,5.01,0.00,26.0,25.2,00.0,34.9,27.9,10.0,0000.0,0004.51,0008.59,0004.03
2022-02-14 19:03:00,,0825.6,5.00,0.00,26.0,25.2,00.0,34.9,27.9,09.7,0000.0,0004.50,0008.33,0004.03
2022-02-14 19:04:00,,0825.6,5.02,0.00,26.0,25.2,00.0,34.9,27.9,09.7,0000.0,0004.50,0008.80,0004.04
2022-02-14 19:05:00,,0825.5,5.00,0.00,26.0,25.2,00.0,34.9,27.9,10.0,0000.0,0004.55,0009.09,0004.06
2022-02-14 19:06:00,,0825.6,5.01,0.00,26.0,25.2,00.0,34.9,27.9,09.5,0000.0,0004.55,0009.00,0004.06
2022-02-14 19:07:00,,0825.5,4.99,0.00,26.0,25.2,00.0,34.9,27.9,09.5,0000.0,0004.55,0008.43,0004.06
2022-02-14 19:08:00,,0825.6,5.01,0.00,26.1,25.2,00.0,34.9,27.9,09.5,0000.0,0004.53,0008.37,0004.05
2022-02-14 19:09:00,,0825.6,5.00,0.00,26.1,25.2,00.0,34.9,27.9,09.3,0000.0,0004.52,0008.41,0004.04
2022-02-14 19:10:00,,0825.6,4.98,0.00,26.1,25.3,00.0,35.0,27.9,09.1,0000.0,0004.51,0009.06,0004.04
2022-02-14 19:11:00,,0825.5,5.01,0.00,26.1,25.3,00.0,35.0,27.9,09.2,0000.0,0004.53,0009.19,0004.04
2022-02-14 19:12:00,,0825.5,4.98,0.00,26.1,25.3,00.0,35.0,28.0,09.2,0000.0,0004.53,0009.24,0004.05
2022-02-14 19:13:00,,0825.4,5.02,0.00,26.1,25.3,00.0,35.0,28.0,09.4,0000.0,0004.55,0009.33,0004.05
2022-02-14 19:14:00,,0825.4,5.00,0.00,26.1,25.3,00.0,35.0,28.0,09.3,0000.0,0004.61,0009.40,0004.05
2022-02-14 19:15:00,,0825.4,5.01,0.00,26.1,25.3,00.0,35.0,28.0,09.4,0000.0,0004.63,0009.39,0004.05
2022-02-14 19:16:00,,0825.5,4.99,0.00,26.1,25.3,00.0,35.0,28.0,09.4,0000.0,0004.62,0009.45,0004.05
2022-02-14 19:17:00,,0825.5,5.00,0.00,26.2,25.3,00.0,35.0,28.0,09.4,0000.0,0004.64,0009.64,0004.06
2022-02-14 19:18:00,,0825.4,5.01,0.00,26.2,25.3,00.0,35.0,28.0,09.2,0000.0,0004.64,0009.64,0004.07
2022-02-14 19:19:00,,0825.3,5.00,0.00,26.2,25.3,00.0,35.0,28.0,08.8,0000.0,0004.72,0010.04,0004.10
2022-02-14 19:20:00,,0825.2,5.01,0.00,26.2,25.3,00.0,35.0,28.0,09.1,0000.0,0004.78,0010.59,0004.15
2022-02-14 19:21:00,,0825.2,5.01,0.00,26.2,25.4,00.0,35.1,28.0,09.0,0000.0,0004.82,0010.08,0004.18
2022-02-14 19:22:00,,0825.1,5.00,0.00,26.2,25.4,00.0,35.1,28.0,09.1,0000.0,0004.86,0010.43,0004.20
2022-02-14 19:23:00,,0825.1,5.01,0.00,26.2,25.4,00.0,35.1,28.1,09.2,0000.0,0004.90,0010.73,0004.24
2022-02-14 19:24:00,,0825.1,4.98,0.00,26.2,25.4,00.0,35.1,28.1,09.1,0000.0,0004.95,0010.77,0004.28
2022-02-14 19:25:00,,0825.1,5.00,0.00,26.2,25.4,00.0,35.1,28.1,09.4,0000.0,0004.96,0010.77,0004.31
2022-02-14 19:26:00,,0825.0,4.98,0.00,26.2,25.4,00.0,35.1,28.1,09.3,0000.0,0005.01,0010.51,0004.34
2022-02-14 19:27:00,,0824.9,5.00,0.00,26.2,25.4,00.0,35.1,28.1,09.7,0000.0,0005.08,0010.43,0004.38
2022-02-14 19:28:00,,0824.9,4.99,0.00,26.3,25.5,00.0,35.1,28.1,09.9,0000.0,0005.11,0010.82,0004.41
2022-02-14 19:29:00,,0824.9,5.02,0.00,26.3,25.5,00.0,35.1,28.1,09.4,0000.0,0005.16,0011.22,0004.45
2022-02-14 19:30:00,,0825.0,4.99,0.00,26.3,25.5,00.0,35.1,28.1,09.4,0000.0,0005.16,0011.04,0004.47
2022-02-14 19:31:00,,0824.9,5.01,0.00,26.3,25.5,00.0,35.2,28.2,09.4,0000.0,0005.17,0010.73,0004.47
2022-02-14 19:32:00,,0824.9,5.00,0.00,26.3,25.6,00.0,35.2,28.2,09.5,0000.0,0005.22,0011.11,0004.50
2022-02-14 19:33:00,,0824.9,4.99,0.00,26.3,25.6,00.0,35.2,28.2,09.2,0000.0,0005.25,0011.18,0004.52
2022-02-14 19:34:00,,0824.9,5.01,0.00,26.3,25.6,00.0,35.2,28.2,09.3,0000.0,0005.29,0011.10,0004.53
2022-02-14 19:35:00,,0824.9,5.01,0.00,26.4,25.6,00.0,35.2,28.2,09.5,0000.0,0005.30,0011.27,0004.55
2022-02-14 19:36:00,,0824.9,4.99,0.00,26.4,25.6,00.0,35.2,28.2,09.6,0000.0,0005.36,0011.57,0004.57
2022-02-14 19:37:00,,0824.7,5.00,0.00,26.4,25.7,00.0,35.2,28.3,09.9,0000.0,0005.37,0011.57,0004.59
2022-02-14 19:38:00,,0824.6,5.00,0.00,26.4,25.7,00.0,35.3,28.3,09.9,0000.0,0005.36,0011.48,0004.61
2022-02-14 19:39:00,,0824.6,5.02,0.00,26.5,25.7,00.0,35.3,28.3,09.5,0000.0,0005.37,0011.22,0004.63
2022-02-14 19:40:00,,0824.6,4.99,0.00,26.5,25.7,00.0,35.3,28.3,09.5,0000.0,0005.41,0011.26,0004.65
2022-02-14 19:41:00,,0824.6,5.02,0.00,26.5,25.7,00.0,35.3,28.3,09.2,0000.0,0005.44,0011.48,0004.67
2022-02-14 19:42:00,,0824.6,4.99,0.00,26.5,25.7,00.0,35.3,28.3,09.1,0000.0,0005.47,0011.90,0004.69
2022-02-14 19:43:00,,0824.6,5.01,0.00,26.5,25.8,00.0,35.3,28.4,09.4,0000.5,0005.46,0011.64,0004.70
2022-02-14 19:44:00,,0824.6,4.99,0.00,26.5,25.8,00.0,35.4,28.4,09.4,0000.3,0005.49,0011.59,0004.72
2022-02-14 19:45:00,,0824.5,5.00,0.00,26.5,25.8,00.0,35.4,28.4,09.4,0000.0,0005.48,0011.51,0004.74
2022-02-14 19:46:00,,0824.4,5.00,0.00,26.6,25.8,00.0,35.4,28.4,09.2,0000.0,0005.47,0011.31,0004.74
2022-02-14 19:47:00,,0824.5,5.00,0.00,26.6,25.8,00.0,35.4,28.4,09.2,0000.0,0005.50,0011.30,0004.75
2022-02-14 19:48:00,,0824.5,4.98,0.00,26.6,25.8,00.0,35.4,28.4,09.1,0000.0,0005.49,0011.56,0004.75
2022-02-14 19:49:00,,0824.5,5.00,0.00,26.6,25.8,00.0,35.4,28.5,08.8,0000.0,0005.49,0012.05,0004.74
2022-02-14 19:50:00,,0824.4,5.00,0.00,26.6,25.9,00.0,35.4,28.5,09.0,0000.0,0005.49,0012.32,0004.75
2022-02-14 19:51:00,,0824.4,5.00,0.00,26.6,25.9,00.0,35.5,28.5,08.8,0000.0,0005.45,0011.97,0004.73
2022-02-14 19:52:00,,0824.4,4.99,0.00,26.7,25.9,00.0,35.5,28.5,09.1,0000.0,0005.43,0012.66,0004.70
2022-02-14 19:53:00,,0824.3,5.01,0.00,26.7,25.9,00.0,35.5,28.5,09.0,0000.0,0005.42,0012.53,0004.67
2022-02-14 19:54:00,,0824.3,5.00,0.00,26.7,26.0,00.0,35.5,28.5,09.0,0000.0,0005.43,0012.41,0004.66
2022-02-14 19:55:00,,0824.3,5.01,0.00,26.7,26.0,00.0,35.5,28.5,09.2,0000.0,0005.38,0012.09,0004.63
2022-02-14 19:56:00,,0824.3,5.00,0.00,26.7,26.0,00.0,35.5,28.6,09.2,0000.0,0005.38,0012.10,0004.61
2022-02-14 19:57:00,,0824.2,5.01,0.00,26.7,26.0,00.0,35.6,28.6,09.1,0000.0,0005.36,0012.16,0004.59
2022-02-14 19:58:00,,0824.2,4.98,0.00,26.8,26.0,00.0,35.6,28.6,08.8,0000.0,0005.34,0012.03,0004.57
2022-02-14 19:59:00,,0824.1,5.02,0.00,26.8,26.0,00.0,35.6,28.6,09.2,0000.0,0005.30,0011.62,0004.55
